User: anonymous   Login
Location: Unspecified
(0.0000°N, 0.0000°E)
Time: 08:33:39
(UTC+02:00)
Language:

ATLAS 2AS CENTAUR R/B - Orbit

View from above orbital plane
View from above orbital plane
View from above satellite
View from above satellite

Ground track
Ground track

The orbit data is extracted from the following two-line orbital elements,

1 28096U 03054B   15089.04467270 0.00000020  00000-0  29898-4 0    05
2 28096  63.6700 305.4989 0256000 287.4451  72.5549 13.40775250    07
Epoch (UTC): 30 March 2015 01:04:19
Eccentricity: 0.0256000
inclination: 63.6700°
perigee height: 915 km
apogee height: 1298 km
right ascension of ascending node: 305.4989°
argument of perigee: 287.4451°
revolutions per day: 13.40775250
mean anomaly at epoch: 72.5549°
orbit number at epoch: 0

The dashed part of the orbit path shows where the satellite is in the earth's shadow,  

DLR